Flag for United Kingdom Weather past 2 weeks in Cheltenham, England, United Kingdom

Now
37 °F

Chilly.


Feels Like: 31 °F
Forecast: 38 / 64 °F
Wind: 7 mph from Northeast

Location: Little Rissington

Current Time: Apr 21, 2015 at 6:29:34 AM

Latest Report: Apr 21, 2015 at 5:00 AM


Visibility: 6 mi

Pressure: 30.54 "Hg

Humidity: 94%

Dew point: 35 °F

Location of CheltenhamLocation

Historic Weather in Cheltenham — Graph

°F

Cheltenham temperature yesterday

Maximum temperature yesterday: 60 °F (at 4:00 PM)
Minimum temperature yesterday: 34 °F (at 6:00 AM)
Average temperature yesterday: 47 °F

Past Weeks' High & Low Weather Summary

 TemperatureHumidityPressure
High68 °F (Apr 15, 2:00 PM)100% (Apr 11, 3:00 AM)30.57 "Hg (Apr 11, 3:00 AM)
Low34 °F (Apr 20, 6:00 AM)38% (Apr 11, 3:00 PM)29.83 "Hg (Apr 11, 5:00 AM)
Average49 °F77%30.24 "Hg
* Reported Apr 7 4:00 PM — Apr 21 5:00 AM, Cheltenham, Weather by CustomWeather, © 2015

Note: Actual official high and low records may vary slightly from our data, if they occured in-between our weather recording intervals... More about our weather records

Advertising

Cheltenham weather history for previous 24 hours

 ConditionsComfort  
Time TempWeatherWind HumidityBarometerVisibility
5:00 AM
Tue, Apr 21
37 °FChilly.7 mph94%30.54 "Hg6 mi
3:00 AM40 °FQuite cool.8 mph88%30.53 "Hg6 mi
2:00 AM40 °FQuite cool.9 mph93%30.54 "Hg6 mi
1:00 AM44 °FQuite cool.10 mph86%30.51 "Hg6 mi
12:00 AM45 °FQuite cool.9 mph88%30.50 "Hg6 mi
11:00 PM
Mon, Apr 20
47 °FCool.10 mph83%30.49 "Hg6 mi
10:00 PM48 °FCool.10 mph79%30.48 "Hg7 mi
9:00 PM49 °FCool.9 mph73%30.47 "Hg7 mi
8:00 PM52 °FCool.8 mph69%30.44 "Hg7 mi
7:00 PM57 °FRefreshingly cool.8 mph58%30.42 "Hg8 mi
6:00 PM58 °FRefreshingly cool.9 mph51%30.41 "Hg8 mi
5:00 PM60 °FRefreshingly cool.12 mph51%30.41 "Hg8 mi
4:00 PM60 °FRefreshingly cool.12 mph49%30.41 "Hg8 mi
3:00 PM59 °FRefreshingly cool.12 mph52%30.42 "Hg7 mi
2:00 PM57 °FRefreshingly cool.13 mph55%30.43 "Hg8 mi
1:00 PM56 °FCool.9 mph60%30.43 "Hg11 mi
12:00 PM53 °FCool.12 mph61%30.43 "Hg12 mi
11:00 AM50 °FCool.14 mph67%30.42 "Hg14 mi
10:00 AM49 °FCool.10 mph77%30.41 "Hg13 mi
9:00 AM44 °FQuite cool.13 mph91%30.41 "Hg9 mi
8:00 AM40 °FQuite cool.8 mph100%30.40 "Hg3 mi
7:00 AM36 °FChilly.8 mph100%30.38 "Hg2 mi
6:00 AM34 °FChilly.8 mph100%30.36 "Hg2 mi
Weather by CustomWeather, © 2015

See weather overviewHow to use our weather pages